ARIANE 44L DEB, 33588

Orbit data source: Space-Track

ARIANE 44L DEB, 33588 is space debris in HEO originally from a launch on Tue, 15 Jan 1991 UTC launched from the French Guiana (FRGUI). Debris objects in space refer to the collection of defunct objects orbiting the Earth. Examples of debris include non-operational satellites, rocket bodies, and fragments generated from explosions, collisions, or faulty payload assembly.

Loading next visibility...
Identifier
33588, 1991-003R
Orbit
HEO
Country
Flag of FRFR
Related business
Manufacturer
Unknown
Mission
Spacecraft
Bus & Motor
Unknown
Mass
Unknown
Launch date (UTC)
1991-01-15 (35 years ago)
Launch vehicle
Unknown
Launch site
French Guiana (FRGUI)
Object type
Payload
Rocket body
Debris
Shape & HBR
Unknown shape, 1.1 m
Radar Cross Section
Medium (>0.1 m² and <1 m²)

Expand to show TLE details & history
Last TLE update: 10 months ago

TLE from 10 months ago
0 ARIANE 44L DEB
1 33588U 91003R   25239.29438904 -.00000280  00000-0 -18357-2 0  9998
2 33588   7.0790 153.7463 6830717 237.2609 332.4423  2.67584899131130
Epoch: 2025-08-27T07:03Z
TLE epoch observation values (Epoch: 2025-08-27T07:03:55.213Z)
Latitude
5.53192°
Longitude
-158.83791°
Altitude
8,498.171 km
Speed
5.95 km/s
True Right ascension
18h 51m 39s
True Declination
5° 30' 58"
Sunlit
Object was in daylight at epoch
Visualization orbit readout
Latitude
Unknown
Longitude
Unknown
Altitude
Unknown
Speed
Unknown
Apparent Right ascension
Unknown
Apparent Declination
Unknown
Sunlit
N/A
Visualization observer readout
Local Sidereal Time
23:07:53
Azimuth
Unknown
Elevation
Unknown
Doppler factor
Unknown
Orbital elements
Apogee altitude
30,516.526 km
Perigee altitude
569.257 km
Semi-major axis
21,921.029 km
Eccentricity
0.68307
Inclination
7.079°
RAAN
153.7463°
Arg. of periapsis
237.2609°
True anomaly
251.49385°
Mean anomaly
332.4423°
Eccentric anomaly
297.8328°
Mean motion
0.66873 °/min
Orbital period
538.33 mins
BSTAR
-0.0018357
Loading maneuver chart data...
Computing Atmospheric mass density...
Loading historical data...
Loading historical data...
Loading historical data...
Loading historical data...
Loading historical data...
Loading historical data...
Loading historical data...

Documentation

Showing up to 5 results
|